DW7304 Weather Reports


Display with metric or nautical units.
time (UTC)temp
F
wind
direction
speed
MPH
gust
MPH
rain 1hr
in
rain 24hr
in
rain mn
in
humidity
%
barometer
mb
20260504194718 54 212 0.0 2.0 0.00 0.00 0.00 59 1013.3
20260504193603 54 131 0.0 2.0 0.00 0.00 0.00 58 1013.2
20260504192703 55 149 1.0 4.0 0.00 0.00 0.00 58 1013.1
20260504191803 55 151 2.0 5.0 0.00 0.00 0.00 58 1013.1
20260504190903 54 150 2.0 6.0 0.00 0.00 0.00 60 1013.0
20260504190003 55 148 2.0 5.0 0.00 0.00 0.00 60 1013.0
20260504185403 55 150 3.0 6.0 0.00 0.00 0.00 62 1013.0
20260504184503 55 145 2.0 5.0 0.00 0.00 0.00 65 1012.9
20260504183603 56 150 3.0 6.0 0.00 0.00 0.00 66 1012.8
20260504182703 56 170 3.0 6.0 0.00 0.00 0.00 66 1012.8
20260504181803 56 181 3.0 6.0 0.00 0.00 0.00 65 1012.8
20260504181117 57 179 3.0 7.0 0.00 0.00 0.00 63 1012.7
20260504180003 57 165 4.0 7.0 0.00 0.00 0.00 62 1012.7
20260504175403 57 169 4.0 7.0 0.00 0.00 0.00 61 1012.6
20260504174503 58 183 4.0 7.0 0.00 0.00 0.00 59 1012.6
20260504173817 58 183 3.0 6.0 0.00 0.00 0.00 58 1012.6
20260504172918 58 180 4.0 7.0 0.00 0.00 0.00 56 1012.6
20260504171803 59 192 4.0 8.0 0.00 0.00 0.00 54 1012.6
20260504170903 59 197 3.0 7.0 0.00 0.00 0.00 55 1012.6
20260504160218 62 209 6.0 12.0 0.00 0.00 0.00 49 1012.8
20260504150903 64 215 8.0 14.0 0.00 0.00 0.00 49 1013.0
20260504140903 66 202 8.0 16.0 0.00 0.00 0.00 46 1013.6
20260504081803 63 258 4.0 9.0 0.00 0.00 0.00 49 1014.4
20260504080903 63 247 3.0 8.0 0.00 0.00 0.00 50 1014.2
20260504080217 64 269 2.0 6.0 0.00 0.00 0.00 50 1014.3
20260504050003 54 105 1.0 2.0 0.00 0.00 0.00 54 1013.2
20260504045403 53 111 2.0 2.0 0.00 0.00 0.00 54 1013.1
20260504044503 53 113 1.0 2.0 0.00 0.00 0.00 54 1012.9
20260504043818 53 112 1.0 2.0 0.00 0.00 0.00 54 1013.0
20260504042917 53 113 1.0 3.0 0.00 0.00 0.00 54 1012.9
20260504041803 53 108 2.0 3.0 0.00 0.00 0.00 54 1012.9
20260504040903 53 110 2.0 3.0 0.00 0.00 0.00 55 1013.1
20260504040003 53 108 2.0 2.0 0.00 0.00 0.00 55 1013.1
20260504035403 53 112 2.0 2.0 0.00 0.00 0.00 55 1013.1
20260504034503 53 113 2.0 3.0 0.00 0.00 0.00 55 1013.1
20260504033603 53 111 2.0 3.0 0.00 0.00 0.00 56 1013.0
20260504032703 52 96 2.0 2.0 0.00 0.00 0.00 57 1013.1
20260504031803 53 94 1.0 2.0 0.00 0.00 0.00 57 1013.1
20260504030904 53 106 2.0 2.0 0.00 0.00 0.00 56 1013.1
20260504030003 53 93 2.0 3.0 0.00 0.00 0.00 56 1013.1
20260504025403 53 90 2.0 2.0 0.00 0.00 0.00 55 1013.2
20260504024503 53 107 1.0 2.0 0.00 0.00 0.00 54 1013.3
20260504023817 53 133 0.0 2.0 0.00 0.00 0.00 53 1013.3
20260504022703 54 126 1.0 2.0 0.00 0.00 0.00 52 1013.5
20260504021803 54 109 2.0 3.0 0.00 0.00 0.00 52 1013.5
20260504020903 54 109 2.0 4.0 0.00 0.00 0.00 51 1013.5
20260504020003 54 123 1.0 2.0 0.00 0.00 0.00 51 1013.3
20260504015403 53 123 0.0 2.0 0.00 0.00 0.00 51 1013.6
20260504014504 53 109 0.0 2.0 0.00 0.00 0.00 50 1013.6
20260504013603 53 88 1.0 2.0 0.00 0.00 0.00 50 1013.5
20260504012918 53 91 1.0 2.0 0.00 0.00 0.00 50 1013.3
20260504011803 54 127 0.0 2.0 0.00 0.00 0.00 50 1013.5
20260504010903 54 135 0.0 2.0 0.00 0.00 0.00 50 1013.5
20260504010218 54 0 0.0 0.0 0.00 0.00 0.00 50 1013.3
20260504005403 54 0 0.0 0.0 0.00 0.00 0.00 50 1013.5
20260504004503 54 0 0.0 0.0 0.00 0.00 0.00 50 1013.5
20260504003816 55 112 0.0 2.0 0.00 0.00 0.00 49 1013.6
20260504002703 55 112 1.0 2.0 0.00 0.00 0.00 49 1013.7
20260504001803 55 112 2.0 2.0 0.00 0.00 0.00 49 1013.7
20260504000903 55 112 2.0 2.0 0.00 0.00 0.00 49 1013.7
20260504000003 54 106 1.0 2.0 0.00 0.00 0.00 49 1013.7
20260503235403 54 108 1.0 2.0 0.00 0.00 0.00 49 1013.8
20260503234717 54 112 1.0 2.0 0.00 0.00 0.00 50 1013.9
20260503233818 54 108 2.0 2.0 0.00 0.00 0.00 50 1013.7
20260503232917 54 100 2.0 2.0 0.00 0.00 0.00 51 1013.8
20260503231803 54 104 1.0 2.0 0.00 0.00 0.00 51 1013.8
20260503230903 54 91 1.0 2.0 0.00 0.00 0.00 51 1013.7
20260503230004 54 72 1.0 2.0 0.00 0.00 0.00 52 1013.7
20260503225403 54 74 2.0 2.0 0.00 0.00 0.00 52 1013.7
20260503224503 53 79 0.0 2.0 0.00 0.00 0.00 53 1013.7
20260503223603 53 0 0.0 0.0 0.00 0.00 0.00 54 1013.8
20260503222703 53 0 0.0 0.0 0.00 0.00 0.00 56 1013.8
20260503221803 53 0 0.0 0.0 0.00 0.00 0.00 57 1013.8
20260503221118 54 0 0.0 0.0 0.00 0.00 0.00 57 1014.0
20260503220004 54 0 0.0 0.0 0.00 0.00 0.00 58 1014.0
20260503215403 54 0 0.0 0.0 0.00 0.00 0.00 58 1014.0
20260503214503 54 0 0.0 0.0 0.00 0.00 0.00 58 1013.8
20260503213603 54 0 0.0 0.0 0.00 0.00 0.00 58 1013.8
20260503212703 54 0 0.0 0.0 0.00 0.00 0.00 58 1013.8
20260503211803 54 112 1.0 2.0 0.00 0.00 0.00 58 1013.7
20260503210904 54 103 2.0 2.0 0.00 0.00 0.00 58 1013.7
20260503210004 54 79 1.0 2.0 0.00 0.00 0.00 59 1013.7
20260503205403 54 69 1.0 2.0 0.00 0.00 0.00 59 1013.6
20260503204503 54 56 1.0 2.0 0.00 0.00 0.00 59 1013.6
20260503203603 54 39 1.0 2.0 0.00 0.00 0.00 59 1013.7
20260503202703 54 39 2.0 2.0 0.00 0.00 0.00 59 1013.7
20260503201803 54 76 1.0 2.0 0.00 0.00 0.00 59 1013.7
20260503200903 54 64 2.0 4.0 0.00 0.00 0.00 59 1013.6
20260503200003 54 65 2.0 3.0 0.00 0.00 0.00 59 1013.7
20260503195403 54 79 2.0 2.0 0.00 0.00 0.00 59 1013.9